This is the latest recevied weather packets stored in our database for station/object EA3ANS-1. If no packets are shown the sender has not sent any weather packets the latest 10 day(s).
| Time | Temp. | Humidity | Pressure | Rain* | Wind** | Luminosity | Snow |
|---|---|---|---|---|---|---|---|
| 1777568510 | 22.78° C | - | 1014.1 hPa | 0 mm | 4.02 m/s, 180° | - | - |
| 1777567912 | 22.78° C | - | 1014.6 hPa | 0 mm | 4.02 m/s, 190° | - | - |
| 1777567314 | 23.33° C | - | 1014.7 hPa | 0 mm | 4.47 m/s, 136° | - | - |
| 1777566717 | 23.33° C | - | 1014.8 hPa | 0 mm | 3.58 m/s, 158° | - | - |
| 1777566114 | 23.89° C | - | 1014.9 hPa | 0 mm | 2.24 m/s, 163° | - | - |
| 1777565515 | 23.33° C | - | 1014.9 hPa | 0 mm | 4.92 m/s, 122° | - | - |
| 1777564913 | 23.89° C | - | 1014.9 hPa | 0 mm | 3.58 m/s, 152° | - | - |
| 1777564312 | 24.44° C | - | 1014.9 hPa | 0 mm | 3.13 m/s, 166° | - | - |
| 1777563715 | 23.89° C | - | 1014.9 hPa | 0 mm | 3.58 m/s, 203° | - | - |
| 1777563117 | 23.89° C | - | 1014.9 hPa | 0 mm | 4.02 m/s, 125° | - | - |
| 1777562515 | 24.44° C | - | 1014.8 hPa | 0 mm | 4.02 m/s, 142° | - | - |
| 1777561876 | 24.44° C | - | 1014.6 hPa | 0 mm | 4.02 m/s, 148° | - | - |
| 1777561278 | 24.44° C | - | 1014.4 hPa | 0 mm | 4.47 m/s, 158° | - | - |
| 1777560669 | 24.44° C | - | 1014.8 hPa | 0 mm | 4.02 m/s, 146° | - | - |
| 1777560072 | 25° C | - | 1014.9 hPa | 0 mm | 4.47 m/s, 145° | - | - |
| 1777559474 | 25.56° C | - | 1014.7 hPa | 0 mm | 3.13 m/s, 108° | - | - |
| 1777558877 | 25° C | - | 1015 hPa | 0 mm | 4.92 m/s, 111° | - | - |
| 1777558280 | 25.56° C | - | 1015.1 hPa | 0 mm | 2.24 m/s, 91° | - | - |
| 1777557677 | 26.11° C | - | 1014.9 hPa | 0 mm | 3.58 m/s, 165° | - | - |
| 1777557066 | 25.56° C | - | 1015.2 hPa | 0 mm | 3.58 m/s, 138° | - | - |
| 1777556468 | 25.56° C | - | 1015.2 hPa | 0 mm | 2.24 m/s, 111° | - | - |
| 1777555871 | 25.56° C | - | 1015 hPa | 0 mm | 3.13 m/s, 103° | - | - |
| 1777555273 | 25.56° C | - | 1015.3 hPa | 0 mm | 3.13 m/s, 79° | - | - |
| 1777554676 | 25° C | - | 1015.3 hPa | 0 mm | 3.58 m/s, 158° | - | - |
| 1777554078 | 25° C | - | 1015.2 hPa | 0 mm | 2.24 m/s, 149° | - | - |
* Rain latest hour (hover to see other rain measurements)
** Current wind speed in m/s (hover to see current wind gust speed)